FW9565 Weather Reports


Display with metric or nautical units.
time (UTC)temp
F
wind
direction
speed
MPH
gust
MPH
rain 1hr
in
rain 24hr
in
rain mn
in
humidity
%
barometer
mb
20260506033109 0 8.0 0.0 0.00 0.00 0.00 1009.2
20260506032552 63 8.0 17.0 0.00 0.00 0.00 79 1009.2
20260506032052 63 295 9.0 17.0 0.00 0.00 0.00 79 1009.3
20260506031559 63 306 8.0 17.0 0.00 0.00 0.00 79 1009.3
20260506031052 64 286 9.0 17.0 0.00 0.00 0.00 79 1009.2
20260506030555 64 314 5.0 14.0 0.00 0.00 0.00 79 1008.9
20260506025553 64 324 8.0 16.0 0.00 0.00 0.00 78 1008.9
20260506025055 65 359 8.0 14.0 0.00 0.00 0.00 78 1008.8
20260506024614 65 321 8.0 15.0 0.00 0.00 0.00 77 1008.5
20260506024052 66 311 7.0 15.0 0.00 0.00 0.00 77 1008.6
20260506023553 66 312 7.0 14.0 0.00 0.00 0.00 77 1008.4
20260506023100 67 315 9.0 14.0 0.00 0.00 0.00 77 1008.1
20260506022552 68 297 8.0 13.0 0.00 0.00 0.00 76 1007.7
20260506022053 68 356 5.0 14.0 0.00 0.00 0.00 76 1007.5
20260506021601 68 332 7.0 14.0 0.00 0.00 0.00 76 1007.5
20260506021055 68 357 7.0 14.0 0.00 0.00 0.00 76 1007.5
20260506020552 69 13 7.0 12.0 0.00 0.00 0.00 76 1007.4
20260506020053 69 23 5.0 12.0 0.00 0.00 0.00 75 1007.2
20260506015554 69 313 5.0 12.0 0.00 0.00 0.00 75 1007.2
20260506015052 69 345 7.0 12.0 0.00 0.00 0.00 75 1007.1
20260506014557 69 287 5.0 16.0 0.00 0.00 0.00 74 1007.0
20260506014056 69 319 8.0 16.0 0.00 0.00 0.00 74 1006.9
20260506013552 70 338 6.0 14.0 0.00 0.00 0.00 74 1006.6
20260506013101 70 318 7.0 14.0 0.00 0.00 0.00 74 1006.8
20260506012552 71 32 7.0 13.0 0.00 0.00 0.00 73 1006.7
20260506012054 71 311 5.0 11.0 0.00 0.00 0.00 73 1006.6
20260506011624 72 304 4.0 8.0 0.00 0.00 0.00 73 1006.5
20260506011053 72 315 4.0 8.0 0.00 0.00 0.00 73 1006.3
20260506010553 72 23 3.0 9.0 0.00 0.00 0.00 72 1006.3
20260506010110 72 352 5.0 10.0 0.00 0.00 0.00 72 1006.2
20260506005551 72 323 4.0 13.0 0.00 0.00 0.00 72 1006.7
20260506005054 72 337 6.0 14.0 0.00 0.00 0.00 71 1005.8
20260506004557 72 328 7.0 14.0 0.00 0.00 0.00 71 1005.8
20260506004054 73 340 6.0 12.0 0.00 0.00 0.00 71 1005.8
20260506003552 73 324 4.0 17.0 0.00 0.00 0.00 70 1006.0
20260506003056 73 331 5.0 17.0 0.00 0.00 0.00 70 1005.8
20260506002551 73 332 8.0 17.0 0.00 0.00 0.00 70 1005.7
20260506002052 73 309 5.0 12.0 0.00 0.00 0.00 70 1005.5
20260506001558 73 337 6.0 12.0 0.00 0.00 0.00 70 1005.5
20260506001051 74 295 5.0 19.0 0.00 0.00 0.00 69 1005.5
20260506000552 74 303 7.0 19.0 0.00 0.00 0.00 69 1005.4
20260506000100 74 314 9.0 17.0 0.00 0.00 0.00 69 1005.4
20260505235552 74 264 10.0 17.0 0.00 0.00 0.00 69 1005.6
20260505235052 75 353 8.0 17.0 0.00 0.00 0.00 69 1005.4
20260505234601 75 1 9.0 17.0 0.00 0.00 0.00 68 1005.4
20260505234053 76 298 9.0 16.0 0.00 0.00 0.00 67 1005.2
20260505233552 77 290 8.0 20.0 0.00 0.00 0.00 67 1005.2
20260505233053 78 360 9.0 20.0 0.00 0.00 0.00 66 1005.1
20260505232552 78 288 7.0 16.0 0.00 0.00 0.00 65 1004.9
20260505232052 79 290 6.0 16.0 0.00 0.00 0.00 64 1005.0
20260505231555 79 306 7.0 16.0 0.00 0.00 0.00 64 1005.0
20260505231052 79 311 8.0 18.0 0.00 0.00 0.00 64 1005.0
20260505230552 80 269 9.0 18.0 0.00 0.00 0.00 63 1004.9
20260505230100 81 311 9.0 17.0 0.00 0.00 0.00 63 1004.7
20260505225552 81 285 8.0 15.0 0.00 0.00 0.00 63 1004.6
20260505225053 82 291 7.0 15.0 0.00 0.00 0.00 62 1004.3
20260505224556 83 293 7.0 15.0 0.00 0.00 0.00 60 1004.2
20260505224052 84 338 7.0 14.0 0.00 0.00 0.00 57 1004.4
20260505223552 85 271 5.0 14.0 0.00 0.00 0.00 55 1004.3
20260505223055 85 316 6.0 14.0 0.00 0.00 0.00 53 1004.1
20260505222553 86 277 8.0 14.0 0.00 0.00 0.00 51 1003.9
20260505222056 87 335 5.0 12.0 0.00 0.00 0.00 51 1003.9
20260505221604 86 311 7.0 14.0 0.00 0.00 0.00 50 1003.9
20260505221052 87 287 6.0 14.0 0.00 0.00 0.00 49 1003.8
20260505220552 87 289 6.0 12.0 0.00 0.00 0.00 49 1003.7
20260505220104 87 291 6.0 12.0 0.00 0.00 0.00 48 1003.6
20260505215551 88 6 6.0 15.0 0.00 0.00 0.00 49 1003.6
20260505215053 88 323 7.0 15.0 0.00 0.00 0.00 49 1003.6
20260505214555 89 271 6.0 11.0 0.00 0.00 0.00 50 1003.8
20260505214052 89 257 7.0 10.0 0.00 0.00 0.00 54 1003.7
20260505213552 0 0.0 0.0 0.00 0.00 0.00 1003.7
20260505213055 0 0.0 0.0 0.00 0.00 0.00 1003.6
20260505212552 0 0.0 0.0 0.00 0.00 0.00 1003.7
20260505212053 0 0.0 0.0 0.00 0.00 0.00 1003.7
20260505211553 0 0.0 0.0 0.00 0.00 0.00 1003.8
20260505211053 0 0.0 0.0 0.00 0.00 0.00 1004.0
20260505210552 0 0.0 0.0 0.00 0.00 0.00 1004.1
20260505210054 0 0.0 0.0 0.00 0.00 0.00 1004.1
20260505205553 0 0.0 0.0 0.00 0.00 0.00 1004.2
20260505205053 0 0.0 0.0 0.00 0.00 0.00 1004.1
20260505204603 0 0.0 0.0 0.00 0.00 0.00 1004.0
20260505204052 0 0.0 0.0 0.00 0.00 0.00 1004.3
20260505203556 87 7.0 15.0 0.00 0.00 0.00 59 1004.3
20260505203107 87 216 5.0 15.0 0.00 0.00 0.00 59 1004.3
20260505202552 87 193 8.0 15.0 0.00 0.00 0.00 59 1004.6
20260505202052 87 220 8.0 15.0 0.00 0.00 0.00 59 1004.6
20260505201604 88 265 6.0 0.0 0.00 0.00 0.00 60 1004.6
20260505201052 0 0.0 0.0 0.00 0.00 0.00 1004.4
20260505200554 0 0.0 0.0 0.00 0.00 0.00 1004.5
20260505200058 0 0.0 0.0 0.00 0.00 0.00 1004.5
20260505195552 0 0.0 0.0 0.00 0.00 0.00 1004.6
20260505195051 0 0.0 0.0 0.00 0.00 0.00 1004.7
20260505194603 0 0.0 0.0 0.00 0.00 0.00 1004.7
20260505194052 0 0.0 0.0 0.00 0.00 0.00 1004.8
20260505193551 0 0.0 0.0 0.00 0.00 0.00 1004.7
20260505193059 0 0.0 0.0 0.00 0.00 0.00 1004.8
20260505192553 0 0.0 0.0 0.00 0.00 0.00 1004.5
20260505192052 0 0.0 0.0 0.00 0.00 0.00 1004.7
20260505191556 0 0.0 0.0 0.00 0.00 0.00 1004.7
20260505191052 0 0.0 0.0 0.00 0.00 0.00 1004.7
20260505190554 83 11.0 15.0 0.00 0.00 0.00 65 1004.7
20260505190054 83 10.0 17.0 0.00 0.00 0.00 65 1004.7
20260505185552 83 195 10.0 17.0 0.00 0.00 0.00 65 1004.7
20260505185052 83 179 9.0 17.0 0.00 0.00 0.00 65 1004.7
20260505184556 83 207 10.0 15.0 0.00 0.00 0.00 65 1004.8
20260505184052 84 165 8.0 17.0 0.00 0.00 0.00 65 1004.8
20260505183554 84 210 8.0 17.0 0.00 0.00 0.00 64 1004.8
20260505183058 83 189 9.0 14.0 0.00 0.00 0.00 65 1004.8
20260505182551 0 0.0 0.0 0.00 0.00 0.00 1004.8
20260505182052 0 0.0 0.0 0.00 0.00 0.00 1004.8
20260505181600 0 0.0 0.0 0.00 0.00 0.00 1004.9
20260505181052 0 0.0 0.0 0.00 0.00 0.00 1004.8
20260505180552 0 0.0 0.0 0.00 0.00 0.00 1004.8
20260505180055 0 0.0 0.0 0.00 0.00 0.00 1004.7
20260505175553 0 0.0 0.0 0.00 0.00 0.00 1004.9
20260505175052 0 0.0 0.0 0.00 0.00 0.00 1004.7
20260505174556 0 0.0 0.0 0.00 0.00 0.00 1004.8
20260505174052 0 0.0 0.0 0.00 0.00 0.00 1004.7
20260505173551 0 0.0 0.0 0.00 0.00 0.00 1004.9
20260505173055 0 0.0 0.0 0.00 0.00 0.00 1004.8
20260505172614 0 0.0 0.0 0.00 0.00 0.00 1004.8
20260505172051 0 0.0 0.0 0.00 0.00 0.00 1004.8
20260505171556 80 7.0 12.0 0.00 0.00 0.00 73 1004.8
20260505171052 80 168 5.0 17.0 0.00 0.00 0.00 73 1004.8
20260505170552 80 202 10.0 20.0 0.00 0.00 0.00 73 1004.8
20260505170056 80 158 10.0 20.0 0.00 0.00 0.00 72 1004.9
20260505165551 80 142 9.0 18.0 0.00 0.00 0.00 73 1005.0
20260505165053 80 180 10.0 18.0 0.00 0.00 0.00 73 1005.0
20260505164602 80 133 9.0 15.0 0.00 0.00 0.00 73 1004.9
20260505164052 79 201 8.0 17.0 0.00 0.00 0.00 73 1004.9
20260505163552 79 216 9.0 17.0 0.00 0.00 0.00 75 1004.8
20260505163053 79 197 8.0 10.0 0.00 0.00 0.00 74 1004.8
20260505162551 0 0.0 0.0 0.00 0.00 0.00 1004.9
20260505162051 0 0.0 0.0 0.00 0.00 0.00 1004.8
20260505161557 0 0.0 0.0 0.00 0.00 0.00 1004.7
20260505161052 0 0.0 0.0 0.00 0.00 0.00 1004.6
20260505160554 0 0.0 0.0 0.00 0.00 0.00 1004.7
20260505153107 0 0.0 0.0 0.00 0.00 0.00 1004.4
20260505152554 0 0.0 0.0 0.00 0.00 0.00 1004.4
20260505152051 0 11.0 0.0 0.00 0.00 0.00 1004.4
20260505151556 76 10.0 20.0 0.00 0.00 0.00 79 1004.5
20260505151051 76 190 11.0 20.0 0.00 0.00 0.00 79 1004.5
20260505150551 76 200 9.0 19.0 0.00 0.00 0.00 79 1004.7
20260505140552 73 240 11.0 23.0 0.00 0.00 0.00 83 1004.5
20260505124608 71 133 7.0 16.0 0.00 0.00 0.00 86 1004.1
20260505124052 71 116 6.0 12.0 0.00 0.00 0.00 86 1004.2
20260505123555 71 141 6.0 11.0 0.00 0.00 0.00 86 1004.1
20260505123100 0 0.0 0.0 0.00 0.00 0.00 1004.2
20260505122554 0 0.0 0.0 0.00 0.00 0.00 1003.9
20260505122052 0 0.0 0.0 0.00 0.00 0.00 1003.8
20260505121556 0 0.0 0.0 0.00 0.00 0.00 1003.7
20260505121052 0 0.0 0.0 0.00 0.00 0.00 1003.7
20260505120552 0 0.0 0.0 0.00 0.00 0.00 1003.7
20260505120105 0 0.0 0.0 0.00 0.00 0.00 1003.8
20260505115551 0 0.0 0.0 0.00 0.00 0.00 1003.6
20260505115051 0 0.0 0.0 0.00 0.00 0.00 1003.6
20260505114557 0 0.0 0.0 0.00 0.00 0.00 1003.5
20260505114053 0 0.0 0.0 0.00 0.00 0.00 1003.5
20260505113552 0 0.0 0.0 0.00 0.00 0.00 1003.6
20260505113113 0 0.0 0.0 0.00 0.00 0.00 1003.6
20260505112555 0 0.0 0.0 0.00 0.00 0.00 1003.6
20260505112052 0 0.0 0.0 0.00 0.00 0.00 1003.6
20260505111552 0 0.0 0.0 0.00 0.00 0.00 1003.6
20260505111055 0 0.0 0.0 0.00 0.00 0.00 1003.4
20260505110552 0 0.0 0.0 0.00 0.00 0.00 1003.4
20260505102052 0 0.0 0.0 0.00 0.00 0.00 1003.5
20260505101557 0 0.0 0.0 0.00 0.00 0.00 1003.4
20260505101053 0 0.0 0.0 0.00 0.00 0.00 1003.5
20260505100552 0 0.0 0.0 0.00 0.00 0.00 1003.6
20260505100054 0 0.0 0.0 0.00 0.00 0.00 1003.5
20260505095552 0 0.0 0.0 0.00 0.00 0.00 1003.6
20260505095051 0 0.0 0.0 0.00 0.00 0.00 1003.5
20260505094554 0 0.0 0.0 0.00 0.00 0.00 1003.5
20260505094051 0 0.0 0.0 0.00 0.00 0.00 1003.5
20260505093551 0 0.0 0.0 0.00 0.00 0.00 1003.7
20260505093104 0 0.0 0.0 0.00 0.00 0.00 1003.9
20260505092550 0 0.0 0.0 0.00 0.00 0.00 1003.8
20260505092054 0 0.0 0.0 0.00 0.00 0.00 1003.8
20260505091555 0 0.0 0.0 0.00 0.00 0.00 1004.0
20260505091051 0 0.0 0.0 0.00 0.00 0.00 1003.9
20260505090551 0 0.0 0.0 0.00 0.00 0.00 1004.1
20260505090053 0 0.0 0.0 0.00 0.00 0.00 1004.2
20260505085552 0 0.0 0.0 0.00 0.00 0.00 1004.0
20260505085054 0 0.0 0.0 0.00 0.00 0.00 1004.0
20260505084556 0 0.0 0.0 0.00 0.00 0.00 1003.9
20260505084054 0 0.0 0.0 0.00 0.00 0.00 1004.0
20260505083553 0 0.0 0.0 0.00 0.00 0.00 1004.0
20260505083100 0 0.0 0.0 0.00 0.00 0.00 1003.9
20260505082552 0 0.0 0.0 0.00 0.00 0.00 1004.0
20260505082052 0 0.0 0.0 0.00 0.00 0.00 1004.1
20260505081557 0 0.0 0.0 0.00 0.00 0.00 1004.1
20260505081052 0 0.0 0.0 0.00 0.00 0.00 1003.9
20260505080551 0 0.0 0.0 0.00 0.00 0.00 1004.2
20260505080108 0 0.0 0.0 0.00 0.00 0.00 1004.2
20260505075551 0 0.0 0.0 0.00 0.00 0.00 1004.2
20260505075051 0 0.0 0.0 0.00 0.00 0.00 1004.2
20260505074554 0 0.0 0.0 0.00 0.00 0.00 1004.2
20260505074054 0 0.0 0.0 0.00 0.00 0.00 1004.4
20260505073551 0 0.0 0.0 0.00 0.00 0.00 1004.4
20260505073100 0 0.0 0.0 0.00 0.00 0.00 1004.6
20260505072553 0 0.0 0.0 0.00 0.00 0.00 1004.7
20260505072052 0 0.0 0.0 0.00 0.00 0.00 1004.7
20260505071554 0 0.0 0.0 0.00 0.00 0.00 1004.8
20260505071053 0 0.0 0.0 0.00 0.00 0.00 1004.9
20260505070554 0 0.0 0.0 0.00 0.00 0.00 1004.9
20260505070055 0 0.0 0.0 0.00 0.00 0.00 1005.0
20260505065552 0 0.0 0.0 0.00 0.00 0.00 1005.0
20260505065051 0 0.0 0.0 0.00 0.00 0.00 1005.0
20260505064601 0 0.0 0.0 0.00 0.00 0.00 1005.2
20260505064051 0 0.0 0.0 0.00 0.00 0.00 1005.3
20260505063554 0 0.0 0.0 0.00 0.00 0.00 1005.3
20260505063102 0 0.0 0.0 0.00 0.00 0.00 1005.3
20260505062553 0 0.0 0.0 0.00 0.00 0.00 1005.3
20260505062052 0 0.0 0.0 0.00 0.00 0.00 1005.3
20260505061600 0 0.0 0.0 0.00 0.00 0.00 1005.3
20260505061057 0 0.0 0.0 0.00 0.00 0.00 1005.4
20260505060552 0 0.0 0.0 0.00 0.00 0.00 1005.4
20260505060100 0 0.0 0.0 0.00 0.00 0.00 1005.3
20260505055556 0 0.0 0.0 0.00 0.00 0.00 1005.3
20260505055055 0 0.0 0.0 0.00 0.00 0.00 1005.2
20260505054556 0 0.0 0.0 0.00 0.00 0.00 1005.4
20260505054055 0 0.0 0.0 0.00 0.00 0.00 1005.3
20260505053551 0 0.0 0.0 0.00 0.00 0.00 1005.3
20260505053114 0 0.0 0.0 0.00 0.00 0.00 1005.4
20260505052551 0 0.0 0.0 0.00 0.00 0.00 1005.4
20260505052052 0 0.0 0.0 0.00 0.00 0.00 1005.6
20260505051555 0 0.0 0.0 0.00 0.00 0.00 1005.5
20260505051053 0 0.0 0.0 0.00 0.00 0.00 1005.7
20260505050552 0 0.0 0.0 0.00 0.00 0.00 1005.6
20260505050104 0 0.0 0.0 0.00 0.00 0.00 1005.6
20260505041555 0 0.0 0.0 0.00 0.00 0.00 1005.5
20260505041053 0 0.0 0.0 0.00 0.00 0.00 1005.7
20260505040554 0 0.0 0.0 0.00 0.00 0.00 1005.8
20260505040100 0 9.0 19.0 0.00 0.00 0.00 1005.8
20260505035552 0 8.0 19.0 0.00 0.00 0.00 1005.8
20260505035052 76 93 9.0 22.0 0.00 0.00 0.00 71 1005.7
20260505034615 76 178 8.0 22.0 0.00 0.00 0.00 70 1005.7
20260505034054 76 221 9.0 20.0 0.00 0.00 0.00 70 1005.7
20260505033552 76 153 8.0 20.0 0.00 0.00 0.00 70 1005.6